Climatologie pour Saint-Brevin les Pins
Jour • Résumé pour janvier 2, 2017 Système :  Métrique    Anglais   Mixte
« - 1 jour
+ 1 jour »
Jour Semaine Mois Année Personnalisé
  Maximum : Minimum : Moyenne :
Température sous abri : -17.8 °C -15.8 °C -14.8 °C
Point de rosée : -17.8 °C -16.5 °C -14.9 °C
Humidité : Humidity % 91 % 98 %
Vitesse du vent : 0 km/h 0 km/h 9.7 km/h
Rafale : 0 km/h - -
Direction :- - East
Pression : 0 hPa 34496.6 hPa -
Précipitations : 7.62 mm    
Historical Graphs
 
 
Tableau de données pour janvier 2, 2017
Heure Tempé Pt rosée Pression Vent Vitesse Rafale Humidité Taux pluie (/hr) Soleil
-17.8 °C -17.8 °C 0 hPa Calm     Humidity % 0 mm SolarRadiationWatts/m^2 W/m2 Conditions
00:00 -14.4 °C -14.5 °C 34496.6 hPa SE 10.3 km/h 23.3 km/h 99 % 0 mm 0 W/m2
00:05 -14.4 °C -14.5 °C 34496.6 hPa SE 15.6 km/h 23.3 km/h 99 % 0 mm 0 W/m2
00:10 -14.4 °C -14.4 °C 34510.1 hPa SSE 23.3 km/h 23.3 km/h 99 % 0 mm 0 W/m2
00:15 -14.4 °C -14.4 °C 34510.1 hPa SE 10.3 km/h 23.3 km/h 99 % 0 mm 0 W/m2
00:20 -14.3 °C -14.4 °C 34510.1 hPa SSE 7.7 km/h 25.9 km/h 99 % 0 mm 0 W/m2
00:25 -14.3 °C -14.4 °C 34510.1 hPa SSE 2.6 km/h 25.9 km/h 99 % 0 mm 0 W/m2
00:30 -14.3 °C -14.4 °C 34510.1 hPa SE 18.2 km/h 28.5 km/h 99 % 0 mm 0 W/m2
00:35 -14.3 °C -14.4 °C 34510.1 hPa SSE 23.3 km/h 28.5 km/h 99 % 0 mm 0 W/m2
00:40 -14.3 °C -14.4 °C 34510.1 hPa SSE 10.3 km/h 23.3 km/h 99 % 0 mm 0 W/m2
00:45 -14.3 °C -14.3 °C 34510.1 hPa SSE 10.3 km/h 23.3 km/h 99 % 0 mm 0 W/m2
00:50 -14.3 °C -14.3 °C 34510.1 hPa SE 12.9 km/h 25.9 km/h 99 % 0 mm 0 W/m2
00:55 -14.2 °C -14.3 °C 34510.1 hPa SE 15.6 km/h 25.9 km/h 99 % 0 mm 0 W/m2
01:00 -14.2 °C -14.3 °C 34510.1 hPa SSE 5.1 km/h 25.9 km/h 99 % 0 mm 0 W/m2
01:05 -14.2 °C -14.3 °C 34510.1 hPa SE 7.7 km/h 25.9 km/h 99 % 0 mm 0 W/m2
01:10 -14.2 °C -14.3 °C 34510.1 hPa SSE 10.3 km/h 25.9 km/h 99 % 0 mm 0 W/m2
01:15 -14.2 °C -14.3 °C 34510.1 hPa SSE 20.8 km/h 25.9 km/h 99 % 0 mm 0 W/m2
01:20 -14.3 °C -14.3 °C 34510.1 hPa SSE 10.3 km/h 25.9 km/h 99 % 0 mm 0 W/m2
01:25 -14.3 °C -14.3 °C 34510.1 hPa SSE 2.6 km/h 25.9 km/h 99 % 0 mm 0 W/m2
01:30 -14.3 °C -14.3 °C 34510.1 hPa SE 10.3 km/h 23.3 km/h 99 % 0 mm 0 W/m2
01:35 -14.3 °C -14.3 °C 34510.1 hPa SE 5.1 km/h 23.3 km/h 99 % 0 mm 0 W/m2
01:40 -14.2 °C -14.3 °C 34510.1 hPa SSE 2.6 km/h 25.9 km/h 99 % 0 mm 0 W/m2
01:45 -14.2 °C -14.3 °C 34510.1 hPa SSE 5.1 km/h 25.9 km/h 99 % 0 mm 0 W/m2
01:50 -14.2 °C -14.3 °C 34510.1 hPa SSE 5.1 km/h 20.8 km/h 99 % 0 mm 0 W/m2
01:55 -14.2 °C -14.3 °C 34510.1 hPa ESE 12.9 km/h 20.8 km/h 99 % 0 mm 0 W/m2
02:00 -14.2 °C -14.3 °C 34510.1 hPa ESE 5.1 km/h 18.2 km/h 99 % 0 mm 0 W/m2
02:05 -14.2 °C -14.3 °C 34510.1 hPa SSE 10.3 km/h 20.8 km/h 99 % 0 mm 0 W/m2
02:10 -14.2 °C -14.3 °C 34510.1 hPa SSE 15.6 km/h 23.3 km/h 99 % 0 mm 0 W/m2
02:15 -14.3 °C -14.3 °C 34510.1 hPa SSE 10.3 km/h 23.3 km/h 99 % 0 mm 0 W/m2
02:20 -14.3 °C -14.4 °C 34520.3 hPa SE 7.7 km/h 20.8 km/h 99 % 0 mm 0 W/m2
02:25 -14.3 °C -14.4 °C 34520.3 hPa SE 5.1 km/h 18.2 km/h 99 % 0 mm 0 W/m2
02:30 -14.3 °C -14.4 °C 34520.3 hPa ESE 5.1 km/h 18.2 km/h 99 % 0 mm 0 W/m2
02:35 -14.3 °C -14.4 °C 34520.3 hPa ESE 10.3 km/h 18.2 km/h 99 % 0 mm 0 W/m2
02:40 -14.4 °C -14.4 °C 34520.3 hPa Calm   23.3 km/h 99 % 0 mm 0 W/m2
02:45 -14.4 °C -14.5 °C 34520.3 hPa ESE 7.7 km/h 23.3 km/h 99 % 0 mm 0 W/m2
02:50 -14.4 °C -14.5 °C 34520.3 hPa SE 5.1 km/h 18.2 km/h 99 % 0 mm 0 W/m2
02:55 -14.4 °C -14.5 °C 34533.8 hPa SSE 10.3 km/h 18.2 km/h 99 % 0 mm 0 W/m2
03:00 -14.4 °C -14.5 °C 34533.8 hPa SE 5.1 km/h 18.2 km/h 99 % 0 mm 0 W/m2
03:05 -14.4 °C -14.5 °C 34533.8 hPa South 2.6 km/h 18.2 km/h 99 % 0 mm 0 W/m2
03:10 -14.4 °C -14.5 °C 34533.8 hPa SE 7.7 km/h 15.6 km/h 99 % 0 mm 0 W/m2
03:15 -14.5 °C -14.6 °C 34533.8 hPa Calm   15.6 km/h 99 % 0 mm 0 W/m2
03:20 -14.5 °C -14.6 °C 34533.8 hPa SE 10.3 km/h 10.3 km/h 99 % 0 mm 0 W/m2
03:25 -14.5 °C -14.6 °C 34533.8 hPa SE 5.1 km/h 15.6 km/h 99 % 0 mm 0 W/m2
03:30 -14.5 °C -14.6 °C 34544 hPa SE 5.1 km/h 15.6 km/h 99 % 0 mm 0 W/m2
03:35 -14.5 °C -14.6 °C 34544 hPa SE 7.7 km/h 12.9 km/h 99 % 0 mm 0 W/m2
03:45 -14.4 °C -14.5 °C 34544 hPa SSE 12.9 km/h 18.2 km/h 99 % 0 mm 0 W/m2
03:50 -14.4 °C -14.5 °C 34544 hPa SSE 10.3 km/h 25.9 km/h 99 % 0 mm 0 W/m2
03:55 -14.4 °C -14.5 °C 34544 hPa SSE 7.7 km/h 25.9 km/h 99 % 0 mm 0 W/m2
04:00 -14.4 °C -14.4 °C 34544 hPa South 15.6 km/h 20.8 km/h 99 % 0 mm 0 W/m2
04:05 -14.4 °C -14.4 °C 34544 hPa SSE 10.3 km/h 23.3 km/h 99 % 0 mm 0 W/m2
04:10 -14.4 °C -14.4 °C 34544 hPa SSE 5.1 km/h 23.3 km/h 99 % 0 mm 0 W/m2
04:15 -14.4 °C -14.4 °C 34544 hPa South 15.6 km/h 25.9 km/h 99 % 0 mm 0 W/m2
04:20 -14.4 °C -14.5 °C 34544 hPa SSE 23.3 km/h 25.9 km/h 99 % 0 mm 0 W/m2
04:25 -14.4 °C -14.5 °C 34544 hPa Calm   23.3 km/h 99 % 0 mm 0 W/m2
04:30 -14.4 °C -14.5 °C 34544 hPa SSE 2.6 km/h 23.3 km/h 99 % 0 mm 0 W/m2
04:35 -14.4 °C -14.5 °C 34544 hPa Calm   15.6 km/h 99 % 0 mm 0 W/m2
04:40 -14.4 °C -14.5 °C 34544 hPa Calm   15.6 km/h 99 % 0 mm 0 W/m2
04:45 -14.4 °C -14.5 °C 34554.1 hPa ESE 5.1 km/h 12.9 km/h 99 % 0 mm 0 W/m2
04:50 -14.4 °C -14.5 °C 34554.1 hPa ESE 2.6 km/h 7.7 km/h 99 % 0 mm 0 W/m2
04:55 -14.4 °C -14.5 °C 34554.1 hPa Calm   7.7 km/h 99 % 0 mm 0 W/m2
05:00 -14.4 °C -14.4 °C 34554.1 hPa Calm   5.1 km/h 99 % 0 mm 0 W/m2
05:05 -14.4 °C -14.4 °C 34554.1 hPa East 2.6 km/h 7.7 km/h 99 % 0 mm 0 W/m2
05:10 -14.4 °C -14.4 °C 34554.1 hPa East 5.1 km/h 7.7 km/h 99 % 0 mm 0 W/m2
05:15 -14.4 °C -14.4 °C 34554.1 hPa Calm   12.9 km/h 99 % 0 mm 0 W/m2
05:20 -14.4 °C -14.4 °C 34554.1 hPa Calm   12.9 km/h 99 % 0 mm 0 W/m2
05:25 -14.3 °C -14.4 °C 34554.1 hPa Calm   7.7 km/h 99 % 0 mm 0 W/m2
05:30 -14.3 °C -14.4 °C 34567.7 hPa Calm   7.7 km/h 99 % 0 mm 0 W/m2
05:35 -14.3 °C -14.4 °C 34554.1 hPa East 2.6 km/h 7.7 km/h 99 % 0 mm 0 W/m2
05:40 -14.3 °C -14.4 °C 34554.1 hPa East 2.6 km/h 5.1 km/h 99 % 0 mm 0 W/m2
05:45 -14.3 °C -14.4 °C 34567.7 hPa East 5.1 km/h 5.1 km/h 99 % 0 mm 0 W/m2
05:50 -14.3 °C -14.4 °C 34567.7 hPa Calm   7.7 km/h 99 % 0 mm 0 W/m2
05:55 -14.3 °C -14.4 °C 34567.7 hPa East 5.1 km/h 7.7 km/h 99 % 0 mm 0 W/m2
06:00 -14.3 °C -14.4 °C 34567.7 hPa East 7.7 km/h 12.9 km/h 99 % 0 mm 0 W/m2
06:05 -14.3 °C -14.4 °C 34567.7 hPa Calm   12.9 km/h 99 % 0 mm 0 W/m2
06:10 -14.3 °C -14.4 °C 34577.8 hPa East 2.6 km/h 7.7 km/h 99 % 0 mm 0 W/m2
06:15 -14.3 °C -14.4 °C 34577.8 hPa Calm   7.7 km/h 99 % 0 mm 0 W/m2
06:20 -14.3 °C -14.4 °C 34577.8 hPa Calm   2.6 km/h 99 % 0 mm 0 W/m2
06:25 -14.3 °C -14.4 °C 34577.8 hPa East 2.6 km/h 7.7 km/h 99 % 0 mm 0 W/m2
06:30 -14.3 °C -14.4 °C 34577.8 hPa East 2.6 km/h 12.9 km/h 99 % 0 mm 0 W/m2
06:35 -14.3 °C -14.4 °C 34577.8 hPa ESE 5.1 km/h 12.9 km/h 99 % 0 mm 0 W/m2
06:40 -14.3 °C -14.4 °C 34577.8 hPa ESE 2.6 km/h 12.9 km/h 99 % 0 mm 0 W/m2
06:45 -14.3 °C -14.4 °C 34591.4 hPa Calm   10.3 km/h 99 % 0 mm 0 W/m2
06:50 -14.3 °C -14.4 °C 34591.4 hPa NNE 2.6 km/h 10.3 km/h 99 % 0 mm 0 W/m2
06:55 -14.3 °C -14.4 °C 34591.4 hPa East 5.1 km/h 15.6 km/h 99 % 0 mm 0 W/m2
07:00 -14.4 °C -14.5 °C 34591.4 hPa ENE 2.6 km/h 15.6 km/h 99 % 0 mm 0 W/m2
07:05 -14.4 °C -14.5 °C 34601.5 hPa Calm   12.9 km/h 99 % 0 mm 0 W/m2
07:10 -14.5 °C -14.6 °C 34601.5 hPa ENE 2.6 km/h 10.3 km/h 99 % 0 mm 0 W/m2
07:15 -14.6 °C -14.7 °C 34601.5 hPa ENE 2.6 km/h 10.3 km/h 99 % 0 mm 0 W/m2
07:20 -14.6 °C -14.7 °C 34601.5 hPa Calm   10.3 km/h 99 % 0 mm 0 W/m2
07:25 -14.7 °C -14.7 °C 34601.5 hPa East 2.6 km/h 12.9 km/h 99 % 0 mm 0 W/m2
07:30 -14.7 °C -14.7 °C 34601.5 hPa East 2.6 km/h 12.9 km/h 99 % 0 mm 0 W/m2
07:35 -14.7 °C -14.8 °C 34601.5 hPa East 5.1 km/h 12.9 km/h 99 % 0 mm 0 W/m2
07:40 -14.7 °C -14.8 °C 34611.7 hPa East 5.1 km/h 12.9 km/h 99 % 0 mm 0 W/m2
07:45 -14.8 °C -14.8 °C 34611.7 hPa Calm   7.7 km/h 99 % 0 mm 0 W/m2
07:50 -14.8 °C -14.8 °C 34611.7 hPa East 2.6 km/h 12.9 km/h 99 % 0 mm 0 W/m2
07:55 -14.8 °C -14.9 °C 34611.7 hPa ENE 5.1 km/h 12.9 km/h 99 % 0 mm 0 W/m2
08:00 -14.8 °C -14.9 °C 34611.7 hPa ENE 7.7 km/h 12.9 km/h 99 % 0 mm 0 W/m2
08:05 -14.8 °C -14.9 °C 34611.7 hPa ENE 5.1 km/h 10.3 km/h 99 % 0 mm 0 W/m2
08:10 -14.8 °C -14.9 °C 34611.7 hPa East 5.1 km/h 15.6 km/h 99 % 0 mm 0 W/m2
08:15 -14.8 °C -14.9 °C 34625.2 hPa East 5.1 km/h 18.2 km/h 99 % 0 mm 0 W/m2
08:20 -14.9 °C -14.9 °C 34625.2 hPa East 5.1 km/h 18.2 km/h 99 % 0 mm 0 W/m2
08:25 -14.9 °C -14.9 °C 34625.2 hPa Calm   18.2 km/h 99 % 0 mm 0 W/m2
08:30 -14.9 °C -14.9 °C 34625.2 hPa East 5.1 km/h 18.2 km/h 99 % 0 mm 0 W/m2
08:35 -14.9 °C -15 °C 34625.2 hPa ESE 5.1 km/h 15.6 km/h 99 % 0 mm 0 W/m2
08:40 -14.9 °C -15 °C 34625.2 hPa ESE 7.7 km/h 15.6 km/h 99 % 0 mm 0 W/m2
08:45 -14.9 °C -15 °C 34625.2 hPa Calm   18.2 km/h 99 % 7.62 mm 0 W/m2
08:50 -14.9 °C -15 °C 34625.2 hPa ESE 7.7 km/h 18.2 km/h 99 % 7.62 mm 0 W/m2
08:55 -14.9 °C -15 °C 34635.4 hPa ENE 2.6 km/h 12.9 km/h 99 % 7.62 mm 0 W/m2
09:00 -14.9 °C -15 °C 34635.4 hPa East 2.6 km/h 12.9 km/h 99 % 7.62 mm 0 W/m2
09:10 -14.9 °C -15 °C 34635.4 hPa East 5.1 km/h 12.9 km/h 99 % 7.62 mm 0 W/m2
09:15 -14.9 °C -15 °C 34635.4 hPa Calm   12.9 km/h 99 % 7.62 mm 0 W/m2
09:20 -14.9 °C -15 °C 34635.4 hPa East 5.1 km/h 12.9 km/h 99 % 7.62 mm 0 W/m2
09:25 -14.9 °C -15 °C 34635.4 hPa ESE 5.1 km/h 12.9 km/h 99 % 7.62 mm 5 W/m2
09:30 -14.9 °C -15 °C 34635.4 hPa ESE 7.7 km/h 12.9 km/h 99 % 7.62 mm 7 W/m2
09:35 -14.9 °C -15 °C 34635.4 hPa Calm   12.9 km/h 99 % 7.62 mm 11 W/m2
09:40 -14.9 °C -15 °C 34635.4 hPa ESE 5.1 km/h 7.7 km/h 99 % 7.62 mm 14 W/m2
09:45 -14.9 °C -15 °C 34635.4 hPa ESE 5.1 km/h 10.3 km/h 99 % 0 mm 19 W/m2
09:50 -14.9 °C -15 °C 34635.4 hPa ESE 5.1 km/h 10.3 km/h 99 % 0 mm 21 W/m2
09:55 -14.9 °C -15 °C 34635.4 hPa ESE 2.6 km/h 10.3 km/h 99 % 0 mm 19 W/m2
10:00 -14.9 °C -15 °C 34635.4 hPa East 2.6 km/h 12.9 km/h 99 % 0 mm 19 W/m2
10:05 -14.9 °C -15 °C 34645.6 hPa ESE 10.3 km/h 12.9 km/h 99 % 0 mm 26 W/m2
10:10 -14.9 °C -15 °C 34645.6 hPa ESE 5.1 km/h 12.9 km/h 99 % 0 mm 30 W/m2
10:15 -14.9 °C -14.9 °C 34645.6 hPa Calm   10.3 km/h 99 % 0 mm 30 W/m2
10:20 -14.9 °C -14.9 °C 34645.6 hPa ESE 2.6 km/h 7.7 km/h 99 % 0 mm 46 W/m2
10:25 -14.8 °C -14.9 °C 34645.6 hPa ESE 5.1 km/h 7.7 km/h 99 % 0 mm 56 W/m2
10:30 -14.8 °C -14.9 °C 34645.6 hPa SSE 5.1 km/h 15.6 km/h 99 % 0 mm 62 W/m2
10:35 -14.8 °C -14.9 °C 34659.1 hPa ENE 7.7 km/h 15.6 km/h 99 % 0 mm 46 W/m2
10:40 -14.8 °C -14.8 °C 34659.1 hPa ENE 7.7 km/h 12.9 km/h 99 % 0 mm 47 W/m2
10:50 -14.7 °C -14.8 °C 34669.3 hPa Calm   7.7 km/h 99 % 0 mm 56 W/m2
10:55 -14.7 °C -14.8 °C 34669.3 hPa Calm   7.7 km/h 99 % 0 mm 58 W/m2
11:00 -14.7 °C -14.7 °C 34682.8 hPa NE 2.6 km/h 10.3 km/h 99 % 0 mm 58 W/m2
11:05 -14.6 °C -14.7 °C 34682.8 hPa ENE 2.6 km/h 10.3 km/h 99 % 0 mm 56 W/m2
11:10 -14.6 °C -14.7 °C 34682.8 hPa Calm   12.9 km/h 99 % 0 mm 58 W/m2
11:15 -14.6 °C -14.7 °C 34693 hPa ENE 2.6 km/h 12.9 km/h 99 % 0 mm 49 W/m2
11:20 -14.6 °C -14.7 °C 34693 hPa Calm   18.2 km/h 99 % 0 mm 47 W/m2
11:25 -14.6 °C -14.7 °C 34693 hPa East 10.3 km/h 20.8 km/h 99 % 0 mm 42 W/m2
11:30 -14.7 °C -14.7 °C 34703.1 hPa NE 12.9 km/h 20.8 km/h 99 % 0 mm 37 W/m2
11:35 -14.7 °C -14.7 °C 34703.1 hPa ENE 12.9 km/h 23.3 km/h 99 % 0 mm 46 W/m2
11:45 -14.7 °C -14.8 °C 34703.1 hPa East 7.7 km/h 20.8 km/h 99 % 0 mm 44 W/m2
11:50 -14.7 °C -14.8 °C 34703.1 hPa NE 7.7 km/h 12.9 km/h 99 % 0 mm 39 W/m2
11:55 -14.7 °C -14.8 °C 34703.1 hPa East 15.6 km/h 18.2 km/h 99 % 0 mm 40 W/m2
12:00 -14.7 °C -14.8 °C 34703.1 hPa East 15.6 km/h 23.3 km/h 99 % 0 mm 40 W/m2
12:05 -14.7 °C -14.8 °C 34716.7 hPa NE 7.7 km/h 23.3 km/h 99 % 0 mm 37 W/m2
12:10 -14.7 °C -14.8 °C 34703.1 hPa ESE 7.7 km/h 20.8 km/h 99 % 0 mm 37 W/m2
12:15 -14.7 °C -14.8 °C 34703.1 hPa East 10.3 km/h 15.6 km/h 99 % 0 mm 35 W/m2
12:20 -14.7 °C -14.7 °C 34703.1 hPa ENE 2.6 km/h 15.6 km/h 99 % 0 mm 46 W/m2
12:25 -14.7 °C -14.7 °C 34703.1 hPa Calm   12.9 km/h 99 % 0 mm 44 W/m2
12:30 -14.6 °C -14.7 °C 34703.1 hPa East 2.6 km/h 12.9 km/h 99 % 0 mm 56 W/m2
12:35 -14.6 °C -14.7 °C 34703.1 hPa ENE 5.1 km/h 12.9 km/h 99 % 0 mm 56 W/m2
12:40 -14.6 °C -14.7 °C 34703.1 hPa ENE 10.3 km/h 15.6 km/h 99 % 0 mm 46 W/m2
12:45 -14.6 °C -14.7 °C 34703.1 hPa East 5.1 km/h 15.6 km/h 99 % 0 mm 42 W/m2
12:50 -14.6 °C -14.7 °C 34703.1 hPa NE 5.1 km/h 12.9 km/h 99 % 0 mm 39 W/m2
12:55 -14.6 °C -14.6 °C 34703.1 hPa Calm   15.6 km/h 99 % 0 mm 26 W/m2
13:00 -14.6 °C -14.6 °C 34703.1 hPa NE 2.6 km/h 15.6 km/h 99 % 0 mm 25 W/m2
13:05 -14.6 °C -14.7 °C 34703.1 hPa East 2.6 km/h 15.6 km/h 99 % 0 mm 28 W/m2
13:10 -14.6 °C -14.6 °C 34703.1 hPa NE 7.7 km/h 15.6 km/h 99 % 0 mm 25 W/m2
13:15 -14.6 °C -14.6 °C 34703.1 hPa ENE 5.1 km/h 15.6 km/h 99 % 0 mm 44 W/m2
13:20 -14.6 °C -14.6 °C 34703.1 hPa Calm   15.6 km/h 99 % 0 mm 39 W/m2
13:25 -14.6 °C -14.6 °C 34703.1 hPa NE 7.7 km/h 15.6 km/h 99 % 0 mm 40 W/m2
13:30 -14.6 °C -14.6 °C 34693 hPa NE 5.1 km/h 18.2 km/h 99 % 0 mm 49 W/m2
13:35 -14.6 °C -14.6 °C 34693 hPa ENE 10.3 km/h 18.2 km/h 99 % 0 mm 49 W/m2
13:40 -14.5 °C -14.6 °C 34693 hPa NE 7.7 km/h 15.6 km/h 99 % 0 mm 58 W/m2
13:45 -14.5 °C -14.6 °C 34693 hPa ENE 10.3 km/h 15.6 km/h 99 % 0 mm 53 W/m2
13:50 -14.5 °C -14.6 °C 34693 hPa NNE 12.9 km/h 20.8 km/h 99 % 0 mm 49 W/m2
13:55 -14.5 °C -14.6 °C 34693 hPa ENE 7.7 km/h 20.8 km/h 99 % 0 mm 46 W/m2
14:00 -14.5 °C -14.6 °C 34693 hPa NNE 10.3 km/h 20.8 km/h 99 % 0 mm 25 W/m2
14:05 -14.6 °C -14.6 °C 34693 hPa East 2.6 km/h 20.8 km/h 99 % 0 mm 49 W/m2
14:10 -14.6 °C -14.6 °C 34693 hPa East 7.7 km/h 20.8 km/h 99 % 0 mm 56 W/m2
14:15 -14.6 °C -14.7 °C 34682.8 hPa East 2.6 km/h 15.6 km/h 99 % 0 mm 62 W/m2
14:25 -14.6 °C -14.7 °C 34682.8 hPa East 12.9 km/h 18.2 km/h 99 % 0 mm 53 W/m2
14:30 -14.6 °C -14.7 °C 34682.8 hPa ENE 7.7 km/h 18.2 km/h 99 % 0 mm 62 W/m2
14:35 -14.6 °C -14.7 °C 34682.8 hPa East 2.6 km/h 15.6 km/h 99 % 0 mm 67 W/m2
14:40 -14.6 °C -14.7 °C 34682.8 hPa ENE 7.7 km/h 15.6 km/h 99 % 0 mm 47 W/m2
14:45 -14.6 °C -14.7 °C 34682.8 hPa ESE 2.6 km/h 15.6 km/h 99 % 0 mm 60 W/m2
14:50 -14.6 °C -14.6 °C 34682.8 hPa ESE 5.1 km/h 18.2 km/h 99 % 0 mm 62 W/m2
14:55 -14.6 °C -14.6 °C 34682.8 hPa SE 5.1 km/h 18.2 km/h 99 % 0 mm 44 W/m2
15:00 -14.6 °C -14.6 °C 34682.8 hPa NE 5.1 km/h 18.2 km/h 99 % 0 mm 51 W/m2
15:05 -14.5 °C -14.6 °C 34682.8 hPa NE 5.1 km/h 12.9 km/h 99 % 0 mm 35 W/m2
15:10 -14.5 °C -14.6 °C 34682.8 hPa NNE 7.7 km/h 15.6 km/h 99 % 0 mm 33 W/m2
15:15 -14.5 °C -14.6 °C 34693 hPa Calm   15.6 km/h 99 % 0 mm 33 W/m2
15:20 -14.5 °C -14.6 °C 34693 hPa NE 2.6 km/h 12.9 km/h 99 % 0 mm 37 W/m2
15:25 -14.5 °C -14.6 °C 34693 hPa ENE 2.6 km/h 10.3 km/h 99 % 0 mm 35 W/m2
15:30 -14.5 °C -14.6 °C 34693 hPa NE 7.7 km/h 10.3 km/h 99 % 0 mm 30 W/m2
15:35 -14.5 °C -14.6 °C 34693 hPa ENE 10.3 km/h 18.2 km/h 99 % 0 mm 30 W/m2
15:40 -14.5 °C -14.6 °C 34693 hPa NE 5.1 km/h 18.2 km/h 99 % 0 mm 25 W/m2
15:45 -14.6 °C -14.6 °C 34693 hPa NNE 18.2 km/h 20.8 km/h 99 % 0 mm 26 W/m2
15:50 -14.6 °C -14.7 °C 34703.1 hPa NE 10.3 km/h 23.3 km/h 99 % 0 mm 19 W/m2
15:55 -14.6 °C -14.7 °C 34703.1 hPa ENE 10.3 km/h 23.3 km/h 99 % 0 mm 18 W/m2
16:00 -14.6 °C -14.7 °C 34703.1 hPa NNE 7.7 km/h 18.2 km/h 99 % 0 mm 16 W/m2
16:10 -14.6 °C -14.7 °C 34716.7 hPa NE 18.2 km/h 23.3 km/h 99 % 0 mm 16 W/m2
16:15 -14.6 °C -14.7 °C 34716.7 hPa ENE 23.3 km/h 28.5 km/h 99 % 0 mm 14 W/m2
16:20 -14.7 °C -14.7 °C 34716.7 hPa ENE 20.8 km/h 28.5 km/h 99 % 0 mm 11 W/m2
16:25 -14.7 °C -14.8 °C 34716.7 hPa Calm   28.5 km/h 99 % 0 mm 9 W/m2
16:30 -14.7 °C -14.8 °C 34716.7 hPa NE 12.9 km/h 23.3 km/h 99 % 0 mm 9 W/m2
16:40 -14.7 °C -14.8 °C 34726.8 hPa NE 7.7 km/h 23.3 km/h 99 % 0 mm 7 W/m2
16:45 -14.7 °C -14.8 °C 34726.8 hPa NNE 23.3 km/h 28.5 km/h 99 % 0 mm 5 W/m2
16:50 -14.8 °C -14.8 °C 34726.8 hPa NNE 12.9 km/h 28.5 km/h 99 % 0 mm 5 W/m2
16:55 -14.8 °C -14.9 °C 34726.8 hPa ENE 7.7 km/h 28.5 km/h 99 % 0 mm 0 W/m2
17:00 -14.8 °C -14.9 °C 34726.8 hPa NE 18.2 km/h 28.5 km/h 99 % 0 mm 0 W/m2
17:05 -14.8 °C -14.9 °C 34726.8 hPa NNE 15.6 km/h 28.5 km/h 99 % 0 mm 0 W/m2
17:10 -14.9 °C -14.9 °C 34726.8 hPa NE 10.3 km/h 28.5 km/h 99 % 0 mm 0 W/m2
17:15 -14.9 °C -15 °C 34726.8 hPa North 2.6 km/h 28.5 km/h 99 % 0 mm 0 W/m2
17:20 -14.9 °C -15 °C 34726.8 hPa ENE 10.3 km/h 25.9 km/h 99 % 0 mm 0 W/m2
17:25 -14.9 °C -15 °C 34726.8 hPa NE 10.3 km/h 25.9 km/h 99 % 0 mm 0 W/m2
17:30 -14.9 °C -15 °C 34726.8 hPa ENE 18.2 km/h 28.5 km/h 99 % 0 mm 0 W/m2
17:35 -14.9 °C -15.1 °C 34726.8 hPa NNE 18.2 km/h 28.5 km/h 99 % 0 mm 0 W/m2
17:40 -15 °C -15.1 °C 34726.8 hPa ENE 7.7 km/h 28.5 km/h 99 % 0 mm 0 W/m2
17:50 -15 °C -15.1 °C 34726.8 hPa ENE 18.2 km/h 33.6 km/h 99 % 0 mm 0 W/m2
17:55 -15.1 °C -15.1 °C 34726.8 hPa ENE 10.3 km/h 28.5 km/h 99 % 0 mm 0 W/m2
18:00 -15.1 °C -15.1 °C 34726.8 hPa ENE 28.5 km/h 28.5 km/h 99 % 0 mm 0 W/m2
18:05 -15.1 °C -15.1 °C 34726.8 hPa ENE 20.8 km/h 28.5 km/h 99 % 0 mm 0 W/m2
18:10 -15.1 °C -15.2 °C 34726.8 hPa ENE 7.7 km/h 33.6 km/h 99 % 0 mm 0 W/m2
18:15 -15.1 °C -15.2 °C 34740.4 hPa ENE 20.8 km/h 33.6 km/h 99 % 0 mm 0 W/m2
18:20 -15.1 °C -15.2 °C 34740.4 hPa ENE 7.7 km/h 28.5 km/h 99 % 0 mm 0 W/m2
18:25 -15.1 °C -15.2 °C 34740.4 hPa NNE 18.2 km/h 28.5 km/h 99 % 0 mm 0 W/m2
18:30 -15.1 °C -15.2 °C 34740.4 hPa NE 10.3 km/h 36.2 km/h 99 % 0 mm 0 W/m2
18:35 -15.1 °C -15.2 °C 34740.4 hPa ENE 18.2 km/h 36.2 km/h 99 % 0 mm 0 W/m2
18:40 -15.2 °C -15.2 °C 34740.4 hPa ENE 12.9 km/h 36.2 km/h 99 % 0 mm 0 W/m2
18:45 -15.2 °C -15.2 °C 34740.4 hPa NE 18.2 km/h 36.2 km/h 99 % 0 mm 0 W/m2
18:50 -15.2 °C -15.2 °C 34740.4 hPa ENE 5.1 km/h 36.2 km/h 99 % 0 mm 0 W/m2
18:55 -15.2 °C -15.2 °C 34740.4 hPa NE 10.3 km/h 44.1 km/h 99 % 0 mm 0 W/m2
19:00 -15.2 °C -15.2 °C 34740.4 hPa NE 18.2 km/h 44.1 km/h 99 % 0 mm 0 W/m2
19:05 -15.2 °C -15.2 °C 34740.4 hPa East 15.6 km/h 33.6 km/h 99 % 0 mm 0 W/m2
19:10 -15.2 °C -15.2 °C 34740.4 hPa East 7.7 km/h 25.9 km/h 99 % 0 mm 0 W/m2
19:15 -15.1 °C -15.2 °C 34740.4 hPa East 18.2 km/h 25.9 km/h 99 % 0 mm 0 W/m2
19:20 -15.1 °C -15.2 °C 34750.5 hPa NE 7.7 km/h 25.9 km/h 99 % 0 mm 0 W/m2
19:25 -15.1 °C -15.2 °C 34750.5 hPa ENE 12.9 km/h 31.1 km/h 99 % 0 mm 0 W/m2
19:30 -15.1 °C -15.2 °C 34750.5 hPa ESE 10.3 km/h 31.1 km/h 99 % 0 mm 0 W/m2
19:35 -15.2 °C -15.2 °C 34760.7 hPa ESE 18.2 km/h 41.4 km/h 99 % 0 mm 0 W/m2
19:40 -15.2 °C -15.3 °C 34760.7 hPa NE 18.2 km/h 41.4 km/h 99 % 0 mm 0 W/m2
19:45 -15.2 °C -15.3 °C 34760.7 hPa ENE 23.3 km/h 36.2 km/h 99 % 0 mm 0 W/m2
19:50 -15.2 °C -15.3 °C 34760.7 hPa East 28.5 km/h 36.2 km/h 99 % 0 mm 0 W/m2
19:55 -15.2 °C -15.4 °C 34760.7 hPa ENE 18.2 km/h 38.8 km/h 98 % 0 mm 0 W/m2
20:00 -15.3 °C -15.4 °C 34760.7 hPa ESE 20.8 km/h 41.4 km/h 98 % 0 mm 0 W/m2
20:05 -15.3 °C -15.4 °C 34760.7 hPa East 15.6 km/h 41.4 km/h 98 % 0 mm 0 W/m2
20:10 -15.3 °C -15.4 °C 34760.7 hPa ENE 18.2 km/h 41.4 km/h 98 % 0 mm 0 W/m2
20:15 -15.3 °C -15.4 °C 34760.7 hPa East 25.9 km/h 31.1 km/h 98 % 0 mm 0 W/m2
20:20 -15.3 °C -15.4 °C 34774.2 hPa ENE 12.9 km/h 31.1 km/h 98 % 0 mm 0 W/m2
20:25 -15.3 °C -15.4 °C 34774.2 hPa East 28.5 km/h 41.4 km/h 98 % 0 mm 0 W/m2
20:30 -15.3 °C -15.4 °C 34774.2 hPa ENE 31.1 km/h 41.4 km/h 98 % 0 mm 0 W/m2
20:35 -15.3 °C -15.4 °C 34774.2 hPa ENE 7.7 km/h 36.2 km/h 98 % 0 mm 0 W/m2
20:40 -15.3 °C -15.4 °C 34774.2 hPa ENE 10.3 km/h 36.2 km/h 98 % 0 mm 0 W/m2
20:45 -15.3 °C -15.4 °C 34774.2 hPa NE 18.2 km/h 36.2 km/h 98 % 0 mm 0 W/m2
20:50 -15.3 °C -15.4 °C 34774.2 hPa East 31.1 km/h 36.2 km/h 98 % 0 mm 0 W/m2
21:00 -15.3 °C -15.5 °C 34774.2 hPa East 25.9 km/h 41.4 km/h 98 % 0 mm 0 W/m2
21:05 -15.3 °C -15.6 °C 34784.4 hPa East 20.8 km/h 36.2 km/h 97 % 0 mm 0 W/m2
21:10 -15.3 °C -15.6 °C 34784.4 hPa ENE 7.7 km/h 33.6 km/h 97 % 0 mm 0 W/m2
21:15 -15.3 °C -15.6 °C 34784.4 hPa East 12.9 km/h 33.6 km/h 97 % 0 mm 0 W/m2
21:20 -15.4 °C -15.6 °C 34784.4 hPa East 25.9 km/h 38.8 km/h 97 % 0 mm 0 W/m2
21:25 -15.4 °C -15.7 °C 34784.4 hPa East 15.6 km/h 38.8 km/h 97 % 0 mm 0 W/m2
21:30 -15.4 °C -15.7 °C 34784.4 hPa East 44.1 km/h 46.7 km/h 97 % 0 mm 0 W/m2
21:35 -15.4 °C -15.8 °C 34797.9 hPa East 25.9 km/h 46.7 km/h 96 % 0 mm 0 W/m2
21:40 -15.5 °C -15.8 °C 34797.9 hPa ENE 23.3 km/h 46.7 km/h 96 % 0 mm 0 W/m2
21:45 -15.6 °C -15.9 °C 34797.9 hPa NE 18.2 km/h 46.7 km/h 96 % 0 mm 0 W/m2
21:50 -15.6 °C -15.9 °C 34797.9 hPa East 18.2 km/h 46.7 km/h 96 % 0 mm 0 W/m2
21:55 -15.6 °C -16 °C 34797.9 hPa East 23.3 km/h 57 km/h 95 % 0 mm 0 W/m2
22:00 -15.7 °C -16.1 °C 34808.1 hPa ESE 23.3 km/h 57 km/h 95 % 0 mm 0 W/m2
22:05 -15.7 °C -16.1 °C 34808.1 hPa East 28.5 km/h 54.4 km/h 95 % 0 mm 0 W/m2
22:10 -15.7 °C -16.1 °C 34808.1 hPa ENE 18.2 km/h 54.4 km/h 95 % 0 mm 0 W/m2
22:15 -15.7 °C -16.1 °C 34808.1 hPa East 31.1 km/h 54.4 km/h 94 % 0 mm 0 W/m2
22:20 -15.7 °C -16.1 °C 34808.1 hPa NE 15.6 km/h 49.2 km/h 94 % 0 mm 0 W/m2
22:25 -15.7 °C -16.1 °C 34808.1 hPa East 15.6 km/h 49.2 km/h 94 % 0 mm 0 W/m2
22:30 -15.7 °C -16.3 °C 34808.1 hPa East 23.3 km/h 38.8 km/h 93 % 0 mm 0 W/m2
22:40 -15.7 °C -16.3 °C 34808.1 hPa ESE 20.8 km/h 46.7 km/h 93 % 0 mm 0 W/m2
22:45 -15.7 °C -16.3 °C 34808.1 hPa East 20.8 km/h 46.7 km/h 93 % 0 mm 0 W/m2
22:50 -15.7 °C -16.4 °C 34808.1 hPa ENE 12.9 km/h 36.2 km/h 92 % 0 mm 0 W/m2
22:55 -15.7 °C -16.4 °C 34808.1 hPa East 23.3 km/h 46.7 km/h 92 % 0 mm 0 W/m2
23:00 -15.7 °C -16.4 °C 34808.1 hPa East 25.9 km/h 46.7 km/h 92 % 0 mm 0 W/m2
23:05 -15.7 °C -16.4 °C 34808.1 hPa East 23.3 km/h 38.8 km/h 92 % 0 mm 0 W/m2
23:10 -15.7 °C -16.4 °C 34808.1 hPa ENE 20.8 km/h 38.8 km/h 92 % 0 mm 0 W/m2
23:15 -15.7 °C -16.4 °C 34808.1 hPa East 18.2 km/h 36.2 km/h 92 % 0 mm 0 W/m2
23:25 -15.7 °C -16.4 °C 34808.1 hPa ESE 18.2 km/h 44.1 km/h 92 % 0 mm 0 W/m2
23:30 -15.7 °C -16.5 °C 34818.2 hPa East 23.3 km/h 49.2 km/h 91 % 0 mm 0 W/m2
23:35 -15.8 °C -16.5 °C 34818.2 hPa East 15.6 km/h 49.2 km/h 91 % 0 mm 0 W/m2
23:40 -15.7 °C -16.5 °C 34818.2 hPa East 7.7 km/h 49.2 km/h 91 % 0 mm 0 W/m2
23:45 -15.7 °C -16.5 °C 34818.2 hPa East 18.2 km/h 28.5 km/h 91 % 0 mm 0 W/m2
23:50 -15.7 °C -16.5 °C 34818.2 hPa East 18.2 km/h 28.5 km/h 91 % 0 mm 0 W/m2
23:55 -15.7 °C -16.5 °C 34818.2 hPa East 23.3 km/h 38.8 km/h 91 % 0 mm 0 W/m2
Avec l'autorisation de Weather Underground - 1.75 mb